User: anonymous   Login
Location: Unspecified
(0.0000°N, 0.0000°E)
Time: 01:50:33
(UTC+00:00)
Language:

MUOS - Orbit

View from above orbital plane
View from above orbital plane
View from above satellite
View from above satellite

Ground track
Ground track

The orbit data is extracted from the following two-line orbital elements,

1 38093U 12009A   17169.69231249 0.00000000  00000-0  00000-0 0    08
2 38093   3.2498 339.2956 0050505 174.7068 185.3607  1.00270000    06
Epoch (UTC): 18 June 2017 16:36:55
Eccentricity: 0.0050505
inclination: 3.2498°
perigee height: 35574 km
apogee height: 35999 km
right ascension of ascending node: 339.2956°
argument of perigee: 174.7068°
revolutions per day: 1.00270000
mean anomaly at epoch: 185.3607°
orbit number at epoch: 0

The dashed part of the orbit path shows where the satellite is in the earth's shadow,  

DLR